{"data":{"norad_id":53992,"epoch":"2026-09-20T13:36:25.168608Z","epoch_age_seconds":80395,"freshness":"FRESH","line1":"1 53992U 22125AE  26263.56695797  .00000577  00000+0  28230-4 0  9990","line2":"2 53992  53.1620  51.5232 0001246  79.0151 281.0992 15.34391625218978","mean_motion":15.34391625,"eccentricity":0.0001246,"inclination_deg":53.162,"raan_deg":51.5232,"arg_perigee_deg":79.0151,"mean_anomaly_deg":281.0992,"bstar":2.823e-5,"rev_number":21897,"period_min":93.848270320167,"perigee_km":461.87576078976,"apogee_km":463.5805043808,"semimajor_km":6840.8651325853,"source":"CELESTRAK","updated_at":"2026-09-21T09:00:33.044689Z"}}